Flight Track Log - Related Links

Times and Time Zones

All times are in EDT time to prevent confusion due to time zone crossing. See the UCA4838 flight status page for this flight to view local times or setup timezone preferences in your user account.

Time Position Orientation Groundspeed Altitude Reporting Facility
EDT Latitude Longitude Course Direction KTS MPH feet Rate Location/Type
Tue 10:35:07 AM 42.7672 -73.8061 208° Southwest 138 159 1,100  Level Boston Center
Tue 10:35:38 AM 42.7881 -73.8122 348° North 137 158 1,800 1,319 Climbing Boston Center
Tue 10:36:38 AM 42.8169 -73.8467 319° Northwest 185 213 3,100 1,339 Climbing Boston Center
Tue 10:37:39 AM 42.8139 -73.9261 267° West 195 224 4,500 1,377 Climbing Boston Center
Tue 10:38:40 AM 42.7675 -73.9617 209° Southwest 203 234 5,900 1,377 Climbing Boston Center
Tue 10:39:41 AM 42.7131 -73.9858 198° South 204 235 7,300 1,377 Climbing Boston Center
Tue 10:40:00 AM 42.3139 -73.8816 208° Southwest  Level Estimated
Tue 10:40:42 AM 42.6606 -74.0069 196° South 202 232 8,700  Level Boston Center
Tue 10:41:43 AM 42.5978 -74.0336 197° South 215 247 9,900 639 Climbing Boston Center
Tue 10:42:44 AM 42.5369 -74.0603 198° South 248 285 10,000 111 Climbing Boston Center
Tue 10:43:31 AM 42.4886 -74.0786 196° South 291 335 10,100  Climbing Boston Center
Tue 10:44:31 AM 42.4111 -74.1106 197° South 295 339 10,000 -50 Descending Boston Center
Tue 10:45:31 AM 42.3481 -74.1369 197° South 278 320 10,000  Level Boston Center
Tue 10:46:31 AM 42.2767 -74.1714 200° South 270 311 10,000  Level Boston Center
Tue 10:47:31 AM 42.1989 -74.2114 201° Southwest 265 305 10,000  Level Boston Center
Tue 10:48:31 AM 42.1400 -74.2544 208° Southwest 265 305 10,000  Level Boston Center
Tue 10:49:31 AM 42.0683 -74.3056 208° Southwest 265 305 10,000  Level Boston Center
Tue 10:50:43 AM 42.0092 -74.3456 207° Southwest 265 305 10,000  Level Boston Center
Tue 10:51:43 AM 41.9247 -74.4072 209° Southwest 270 311 10,000  Level Boston Center
Tue 10:52:43 AM 41.8614 -74.4556 210° Southwest 270 311 10,000  Level Boston Center
Tue 10:53:43 AM 41.7939 -74.5036 208° Southwest 270 311 10,000 -300 Level Boston Center
Tue 10:54:43 AM 41.7225 -74.5344 198° South 275 316 9,400 -750 Descending Boston Center
Tue 10:55:43 AM 41.6533 -74.5461 187° South 280 322 8,500 -1,000 Descending Boston Center
Tue 10:56:43 AM 41.5719 -74.5628 189° South 280 322 7,400 -1,000 Descending Boston Center
Tue 10:57:43 AM 41.5050 -74.5744 187° South 275 316 6,500 -444 Descending Boston Center
Tue 10:59:52 AM 41.3500 -74.6167 192° South 249 287 6,000 -159 Descending New York TRACON
Tue 11:00:52 AM 41.2833 -74.6333 191° South 248 285 6,000  Level New York TRACON
Tue 11:01:46 AM 41.2167 -74.6500 191° South 253 291 6,000  Level New York TRACON
Tue 11:02:46 AM 41.1500 -74.6167 159° South 261 300 6,000  Level New York TRACON
Tue 11:03:46 AM 41.1667 -74.5167 77° East 257 296 6,000  Level New York TRACON
Tue 11:04:46 AM 41.1333 -74.4667 132° Southeast 257 296 6,000  Level New York TRACON
Tue 11:05:46 AM 41.0667 -74.4833 191° South 239 275 6,000  Level New York TRACON
Tue 11:06:46 AM 41.0000 -74.5000 191° South 248 285 6,000  Level New York TRACON
Tue 11:07:46 AM 40.9333 -74.5000 180° South 246 283 6,000  Level New York TRACON
Tue 11:08:46 AM 40.8667 -74.5167 191° South 250 288 6,000 -209 Level New York TRACON
Tue 11:09:41 AM 40.8000 -74.5167 180° South 256 295 5,600 -500 Descending New York TRACON
Tue 11:10:46 AM 40.7167 -74.5000 171° South 238 274 5,000 -288 Descending New York TRACON
Tue 11:11:46 AM 40.6667 -74.5000 180° South 236 272 5,000  Level New York TRACON
Tue 11:12:46 AM 40.6000 -74.5000 180° South 236 272 5,000 -400 Level New York TRACON
Tue 11:13:46 AM 40.5333 -74.4500 150° Southeast 250 288 4,200 -750 Descending New York TRACON
Tue 11:14:46 AM 40.5000 -74.4000 131° Southeast 203 234 3,500 -595 Descending New York TRACON
Tue 11:15:47 AM 40.5000 -74.3333 90° East 186 214 3,000 -250 Descending New York TRACON
Tue 11:16:46 AM 40.5333 -74.2667 57° Northeast 184 212 3,000 -303 Level New York TRACON
Tue 11:17:46 AM 40.5833 -74.2333 27° Northeast 186 214 2,400 -744 Descending New York TRACON
Tue 11:18:47 AM 40.6167 -74.2167 21° North 165 190 1,500 -887 Descending New York TRACON
Tue 11:19:41 AM 40.6500 -74.2000 21° North 137 158 700 -889 Descending New York TRACON
Tue 11:21:00 AM 40.6833 -74.1667 23° Northeast  Level FlightAware Approximate
Tue 11:28:00 AM 40.6925 -74.1687 23° Northeast  Level Estimated
Tue 11:29:00 AM 40.6925 -74.1687 23° Northeast  Level Estimated

Login

Don't have an account? Register now (free) for customized features, flight alerts, and more!